Regional Weather Roundup
Issued by NWS

Home | Current Version | Previous Version | Text Only | Print | Product List | Glossary On
Versions: 1 2 3 4 5 6 7 8 9 10 11 12 13 14 15 16 17 18 19 20 21 22 23 24 25 26 27 28 29 30 31 32 33 34 35 36 37 38 39 40 41 42 43 44 45 46 47 48 49 50
000
ASUS45 KSLC 211410
RWRUT

UTAH REGIONAL WEATHER ROUNDUP
NATIONAL WEATHER SERVICE SALT LAKE CITY UT
800 AM MDT SAT APR 21 2018

UTZ001>011-023>025-211500-

NORTHERN UTAH

CITY           SKY/WX    TMP DP  RH WIND       PRES   REMARKS
BRIGHAM CITY   SUNNY     43  31  63 SE7       30.19R
HILL AFB       SUNNY     45  33  63 S8        30.19R
LOGAN          SUNNY     43  33  68 CALM      30.19R
OGDEN          SUNNY     45  32  60 SE10      30.18R
SALT LAKE CITY SUNNY     48  37  65 SE7       30.20R
TOOELE VALLEY  SUNNY     43  36  75 S5        30.19S
WENDOVER       MOSUNNY   54  18  24 W10       30.19R
HEBER CITY       N/A     36  32  87 CALM      30.22R
WEST JORDAN    SUNNY     45  36  71 S3        30.21R

$$

UTZ011>015-024>027-211500-

CENTRAL/NORTHEAST UTAH

CITY           SKY/WX    TMP DP  RH WIND       PRES   REMARKS
PROVO AIRPORT  SUNNY     41  36  82 E6        30.23R
MOAB/CANYONLAN CLOUDY    48  44  86 N7        30.14R
DELTA          SUNNY     39  36  87 SE6       30.23R WCI  35
PRICE          SUNNY     39  37  92 CALM      30.16R
ROOSEVELT      SUNNY     37  36  93 CALM      30.22R
VERNAL         MOSUNNY   41  37  86 E3        30.18R

$$

UTZ013>016-019>022-027-211500-

SOUTHERN UTAH

CITY           SKY/WX    TMP DP  RH WIND       PRES   REMARKS
BRYCE CANYON   SUNNY     33  29  85 W5        30.27R WCI  29
CEDAR CITY     SUNNY     36  34  92 NE5       30.22S WCI  32
MILFORD        SUNNY     35  35 100 S5        30.23S WCI  31
ST GEORGE      SUNNY     47  32  56 CALM      30.20R
HANKSVILLE     SUNNY     43  32  65 NE3       30.20R
BLANDING         N/A     46  33  60 CALM      30.21R

$$

REGIONAL REPORTS     COLORADO/ARIZONA

CITY           SKY/WX    TMP DP  RH WIND       PRES   REMARKS
CRAIG, CO      CLOUDY    38  33  82 SW6       30.17R WCI  33
GRAND JUNCTION CLOUDY    46  40  79 SE5       30.16R
RIFLE, CO      CLOUDY    38  36  92 SE3       30.18R
MONTROSE, CO   CLOUDY    39  36  89 SW3       30.20R
CORTEZ, CO     PTSUNNY   45  35  68 NW13      30.14R
COLORADO CITY    N/A     34  32  93 CALM      30.23S
PAGE, AZ       SUNNY     46  40  79 CALM      30.17R
GRAND CANYON   SUNNY     28  25  88 CALM      30.24R
KINGMAN, AZ    SUNNY     50  24  36 SE5       30.16R
FLAGSTAFF, AZ  SUNNY     30  26  85 SW5       30.23R WCI  25

$$

REGIONAL REPORTS    NEVADA/IDAHO/WYOMING

CITY           SKY/WX    TMP DP  RH WIND       PRES   REMARKS
LAS VEGAS, NV  SUNNY     59  32  36 S7        30.12R
ELY, NY        MOSUNNY   27  16  63 S12       30.28R WCI  17
ELKO, NV       SUNNY     37  24  59 N3        30.25R
POCATELLO, ID  SUNNY     45  29  53 E3        30.18R
BURLEY, ID     SUNNY     42  26  53 SW9       30.16R
FORT BRIDGER,    N/A     41  30  66 W9        30.22S
EVANSTON, WY   SUNNY     38  27  64 SW5       30.22R WCI  34
ROCK SPRINGS,  SUNNY     36  31  82 CALM      30.19S
KEMMERER, WY   SUNNY     36  28  75 N3        30.21R

$$



USA.gov is the U.S. government's official web portal to all federal, state and local government web resources and services.